OSCAR 7 1 7530U 74089B 26121.55341640 -.00000037 00000-0 56694-4 0 9998 2 7530 101.9925 134.3105 0012008 218.7420 258.3890 12.53697391354672 OSCAR 11 (UOSAT 2) 1 14781U 84021B 26121.43675316 .00001557 00000-0 16447-3 0 9996 2 14781 97.8026 87.5480 0007279 351.0187 9.0900 14.90671574250163 OSCAR 19 (LUSAT) 1 20442U 90005G 26121.50649882 .00000144 00000-0 68328-4 0 9990 2 20442 98.8880 142.0193 0011282 348.7887 11.3044 14.34108332895705 EYESAT A 1 22825U 93061C 26121.15064104 .00000112 00000-0 59552-4 0 9995 2 22825 98.6900 188.5756 0007466 233.5672 126.4823 14.30929178700270 ITAMSAT 1 22826U 93061D 26121.42366525 .00000127 00000-0 64697-4 0 9990 2 22826 98.6846 188.7614 0008249 214.7517 145.3128 14.31354970700624 RADIO ROSTO 1 23439U 94085A 26121.19945777 -.00000039 00000-0 10912-3 0 9997 2 23439 64.8209 19.2088 0154617 12.4382 348.0292 11.27583770290600 JAS 2 1 24278U 96046B 26121.13969796 .00000010 00000-0 46840-4 0 9997 2 24278 98.5294 336.4418 0349202 218.3995 139.1818 13.53272049466809 TECHSAT 1B 1 25397U 98043D 26121.42288839 .00000075 00000-0 52454-4 0 9992 2 25397 99.0062 113.0056 0001571 34.0609 326.0669 14.24419096444673 ISS (ZARYA) 1 25544U 98067A 26121.49020499 .00007209 00000-0 13861-3 0 9999 2 25544 51.6312 171.2410 0007219 11.5197 348.5956 15.49047734564514 PCSAT 1 26931U 01043C 26121.08321288 .00000152 00000-0 87653-4 0 9994 2 26931 67.0526 6.1038 0006441 263.9297 96.1071 14.31937472283705 SAUDISAT 1C 1 27607U 02058C 26121.42305233 .00001417 00000-0 18400-3 0 9990 2 27607 64.5517 273.6595 0075620 270.9681 88.2762 14.82944029257529 CUTE-1 1 27844U 03031E 26121.46227727 .00000347 00000-0 16912-3 0 9997 2 27844 98.6752 130.6070 0008831 327.8386 32.2254 14.24306365185026 CUBESAT XI 4 1 27848U 03031J 26121.00566327 .00000259 00000-0 13282-3 0 9992 2 27848 98.6788 129.9070 0009103 348.5967 11.5004 14.23594934184660 MOZHAYETS 4 1 27939U 03042A 26121.56405872 .00001195 00000-0 19257-3 0 9991 2 27939 98.3463 304.6092 0012413 59.8169 32.8140 14.73383753208684 CUBESAT XI 5 1 28895U 05043F 26121.38168872 .00001682 00000-0 27279-3 0 9996 2 28895 98.2930 276.0386 0013904 359.4957 0.6233 14.72507657 94861 CUTE-1.7+APD 2 1 32785U 08021C 26121.50657722 .00006078 00000-0 38822-3 0 9999 2 32785 97.8250 101.9787 0008928 176.7549 183.3738 15.09004228978151 SEEDS 1 32791U 08021J 26121.43205317 .00025799 00000-0 85778-3 0 9990 2 32791 97.7524 117.1599 0005095 106.4082 253.7719 15.31151147980135 YUBELEINY 1 32953U 08025A 26121.50165410 .00000029 00000-0 13534-3 0 9991 2 32953 82.5083 24.4774 0020588 54.2479 306.0512 12.43177672813898 KKS-1 (KISEKI) 1 33499U 09002H 26121.50053431 .00001589 00000-0 20224-3 0 9998 2 33499 98.1194 43.2077 0009350 82.7872 277.4403 14.83001181929279 SWISSCUBE 1 35932U 09051B 26121.16438687 .00001246 00000-0 25621-3 0 9994 2 35932 98.4066 28.2309 0007071 10.5542 349.5806 14.62388925882284 BEESAT 1 35933U 09051C 26121.49187311 .00000986 00000-0 20814-3 0 9995 2 35933 98.3993 28.2965 0005843 25.3927 334.7560 14.61642278882362 ITUPSAT 1 1 35935U 09051E 26121.44198973 .00000958 00000-0 20807-3 0 9999 2 35935 98.4079 27.4868 0008214 32.2271 327.9429 14.60368841881915 XIWANG-1 (HOPE-1) 1 36122U 09072B 26121.50442624 -.00000274 00000-0 -60253-3 0 9995 2 36122 100.3993 76.0896 0007439 345.7600 14.3302 13.16437397786867 TISAT 1 1 36799U 10035E 26121.37919160 .00030559 00000-0 10540-2 0 9995 2 36799 98.0697 63.8538 0004371 73.0812 287.0905 15.29930195860542 JUGNU 1 37839U 11058B 26121.50666331 .00000475 00000-0 10819-3 0 9995 2 37839 19.9602 232.0272 0018462 281.3375 163.7591 14.13762729752410 SRMSAT 1 37841U 11058D 26121.30100331 .00000439 00000-0 94558-4 0 9992 2 37841 19.9736 343.2629 0011755 48.5124 107.4821 14.11564780751184 HORYU 2 1 38340U 12025D 26121.32676997 .00004308 00000-0 44395-3 0 9992 2 38340 98.2107 252.3748 0007491 344.2298 15.8685 14.90785144741740 STRAND 1 1 39090U 13009E 26121.47860795 .00000327 00000-0 12430-3 0 9997 2 39090 98.3913 302.8650 0008934 18.7908 341.3607 14.37135332690356 CUBEBUG 1 1 39153U 13018D 26121.38386281 .00005205 00000-0 45719-3 0 9996 2 39153 98.1613 279.2639 0010113 306.7171 53.3120 14.97008634704063 ZACUBE 1 39417U 13066B 26121.34297200 .00007108 00000-0 55318-3 0 9990 2 39417 97.8126 83.4276 0043542 50.2188 310.2857 15.00807537673706 TRITON 1 1 39427U 13066M 26121.56111293 .00003767 00000-0 45402-3 0 9992 2 39427 97.8281 32.4320 0091183 27.2453 333.3500 14.81483947667185 GOMX 1 1 39430U 13066Q 26121.53836565 .00001872 00000-0 28797-3 0 9992 2 39430 97.6514 324.9407 0127749 226.9491 132.0963 14.69280005663065 CUBEBUG 2 1 39440U 13066AA 26121.43473389 .00003592 00000-0 33659-3 0 9997 2 39440 97.8882 70.2387 0057790 180.9499 179.1620 14.93427587670019 FUNCUBE 1 1 39444U 13066AE 26121.44559731 .00012990 00000-0 81544-3 0 9996 2 39444 97.8253 91.9465 0036880 6.2751 353.8931 15.08853314672612 UWE-3 1 39446U 13066AG 26121.28734808 .00005946 00000-0 51306-3 0 9996 2 39446 97.8671 77.0710 0051130 115.1955 245.4580 14.96635540670560 UNISAT 6 1 40012U 14033C 26121.40062557 .00003857 00000-0 41908-3 0 9997 2 40012 97.7818 274.9606 0044418 221.3141 138.4713 14.87969569639209 DUCHIFAT 1 1 40021U 14033M 26121.39647666 .00105088 00000-0 14537-2 0 9991 2 40021 98.0526 174.3066 0004768 217.2554 142.8369 15.56751210648450 QB50P1 1 40025U 14033R 26121.47685958 .00010840 00000-0 54321-3 0 9997 2 40025 98.0981 129.3727 0009648 36.5291 323.6597 15.17525558645949 OBJECT G 1 40905U 15049G 26121.55271699 .00047874 00000-0 52731-3 0 9994 2 40905 97.4608 162.9404 0005644 48.0630 312.1108 15.62979153589152 LILACSAT 2 1 40908U 15049K 26121.55144623 .00020485 00000-0 36750-3 0 9995 2 40908 97.4712 156.6605 0008565 71.6889 288.5293 15.49908154588526 LQSAT 1 40958U 15057A 26121.52046794 .00000538 00000-0 83557-4 0 9991 2 40958 97.6673 117.2112 0018576 65.4473 294.8672 14.76722717568424 CHUBUSAT 2 1 41338U 16012B 26121.54063733 .00006668 00000-0 29282-3 0 9994 2 41338 30.9984 267.3899 0008767 322.3745 37.6282 15.20413822561314 CHUBUSAT 3 1 41339U 16012C 26121.53055764 .00005360 00000-0 25041-3 0 9996 2 41339 31.0048 275.9440 0009024 310.1056 49.8793 15.18172047561109 PRATHAM 1 41783U 16059A 26121.52677705 .00000887 00000-0 16502-3 0 9995 2 41783 97.8324 120.4379 0031534 10.0825 350.1006 14.67130674512671 ALSAT 1N 1 41789U 16059G 26121.46551119 .00001002 00000-0 17717-3 0 9993 2 41789 97.8015 126.8987 0025585 340.9043 19.1202 14.69230194513148